Sigfox identifier Datetime Temperature Humidity SNR
003C46AE 2019-02-20 13:44:01 20.8 23 24.3
003C46AE 2019-02-20 13:12:20 20.8 24 24.3
003C46AE 2019-02-20 12:40:40 20.8 24 23.7
003C46AE 2019-02-20 12:09:00 20.8 25 23.6
003C46AE 2019-02-20 11:37:22 20.8 26 22.9
003C46AE 2019-02-20 11:05:01 20.7 27 21.9
003C46AE 2019-02-20 10:33:26 20.7 27 22
003C46AE 2019-02-20 10:01:42 20.7 27 20.9
003C46AE 2019-02-20 09:30:01 20.7 27 20.8
003C46AE 2019-02-20 08:58:22 20.6 27 19.2
003C46AE 2019-02-20 08:26:42 20.6 27 19.2
003C46AE 2019-02-20 07:55:04 20.6 27 19
003C46AE 2019-02-20 07:23:22 20.6 27 19
003C46AE 2019-02-20 06:51:44 20.6 28 19.1
003C46AE 2019-02-20 06:20:06 20.7 28 18.9
003C46AE 2019-02-20 05:48:26 20.7 28 18.9
003C46AE 2019-02-20 05:16:48 20.7 28 20.6
003C46AE 2019-02-20 04:45:09 20.7 27 20.5
003C46AE 2019-02-20 04:13:27 20.7 27 20.4
003C46AE 2019-02-20 03:41:47 20.7 27 20.3
003C46AE 2019-02-20 03:10:06 20.7 27 20.2
003C46AE 2019-02-20 02:38:26 20.7 27 20.1
003C46AE 2019-02-20 02:06:45 20.7 27 20.1
003C46AE 2019-02-20 01:35:07 20.7 27 20.2
003C46AE 2019-02-20 01:03:25 20.7 27 20.2
003C46AE 2019-02-20 00:31:43 20.7 27 19.9
003C46AE 2019-02-20 00:00:02 20.7 27 19.7
003C46AE 2019-02-19 23:28:20 20.7 27 19.5
003C46AE 2019-02-19 22:56:39 20.7 27 19.3
003C46AE 2019-02-19 22:25:01 20.7 27 19.2
003C46AE 2019-02-19 21:53:22 20.7 27 19.3
003C46AE 2019-02-19 21:21:36 20.8 27 19.3
003C46AE 2019-02-19 20:49:55 20.8 27 19.3
003C46AE 2019-02-19 20:18:14 20.8 27 19.2
003C46AE 2019-02-19 19:46:34 20.8 27 19.2
003C46AE 2019-02-19 19:14:53 20.8 27 19.5
003C46AE 2019-02-19 18:43:12 20.9 27 19.5
003C46AE 2019-02-19 18:11:32 20.9 27 19.4
003C46AE 2019-02-19 17:39:52 21 28 19.4
003C46AE 2019-02-19 17:08:11 21 28 19.2
003C46AE 2019-02-19 16:36:31 21 28 19.4
003C46AE 2019-02-19 16:04:52 21 28 16.8
003C46AE 2019-02-19 15:33:12 20.9 27 17
003C46AE 2019-02-19 15:01:32 21 27 17.3
003C46AE 2019-02-19 14:29:52 20.9 28 17.7
003C46AE 2019-02-19 13:58:11 20.9 28 18
003C46AE 2019-02-19 13:26:32 20.9 28 18
003C46AE 2019-02-19 12:54:50 20.9 27 18.2
003C46AE 2019-02-19 12:23:10 20.9 27 18.3
003C46AE 2019-02-19 11:51:30 20.9 27 18.4
003C46AE 2019-02-19 11:19:48 20.9 27 18.3
003C46AE 2019-02-19 10:48:07 20.8 27 18.5
003C46AE 2019-02-19 10:16:27 20.8 27 18.7
003C46AE 2019-02-19 09:44:48 20.7 26 18.8
003C46AE 2019-02-19 09:13:05 20.7 26 19
003C46AE 2019-02-19 08:40:43 20.7 26 19
003C46AE 2019-02-19 08:09:01 20.7 25 19.4
003C46AE 2019-02-19 07:37:23 20.7 25 19.4
003C46AE 2019-02-19 07:05:41 20.7 25 19.5
003C46AE 2019-02-19 06:34:00 20.6 25 19.7
003C46AE 2019-02-19 06:02:19 20.7 25 19.4
003C46AE 2019-02-19 05:30:38 20.7 25 19.3
003C46AE 2019-02-19 04:58:57 20.7 25 19.3
003C46AE 2019-02-19 04:27:16 20.7 25 19.3
003C46AE 2019-02-19 03:55:35 20.7 24 20.9
003C46AE 2019-02-19 03:23:53 20.7 24 20.9
003C46AE 2019-02-19 02:52:11 20.7 24 20.8
003C46AE 2019-02-19 02:20:29 20.7 24 20.8
003C46AE 2019-02-19 01:48:47 20.7 24 20.5
003C46AE 2019-02-19 01:17:06 20.7 24 20.5
003C46AE 2019-02-19 00:45:25 20.7 24 20.7
003C46AE 2019-02-19 00:13:44 20.7 24 20.7
003C46AE 2019-02-18 23:42:04 20.7 23 20.7
003C46AE 2019-02-18 23:10:24 20.7 23 20.9
003C46AE 2019-02-18 22:38:43 20.7 23 21.1
003C46AE 2019-02-18 22:07:02 20.7 23 21.1
003C46AE 2019-02-18 21:35:21 20.7 23 21.2
003C46AE 2019-02-18 21:03:41 20.8 23 21.3
003C46AE 2019-02-18 20:32:01 20.7 23 21.3
003C46AE 2019-02-18 20:00:20 20.7 22 21.4
003C46AE 2019-02-18 19:28:39 20.7 22 22.3
003C46AE 2019-02-18 18:56:58 20.8 22 23.1
003C46AE 2019-02-18 18:25:16 20.8 22 23.9
003C46AE 2019-02-18 17:53:35 20.8 22 23.8
003C46AE 2019-02-18 17:21:54 20.8 22 24
003C46AE 2019-02-18 16:50:16 20.9 22 24.1
003C46AE 2019-02-18 16:18:36 20.9 22 24.1
003C46AE 2019-02-18 15:46:56 21 22 24.2
003C46AE 2019-02-18 15:15:16 21 21 23.6
003C46AE 2019-02-18 14:43:37 21 21 23.7
003C46AE 2019-02-18 14:11:58 21.1 21 23.8
003C46AE 2019-02-18 13:40:19 21.1 20 23.9
003C46AE 2019-02-18 13:08:39 21.2 20 24
003C46AE 2019-02-18 12:36:59 21.4 20 24.1
003C46AE 2019-02-18 12:05:20 21.4 20 24.1
003C46AE 2019-02-18 11:33:40 21.3 20 24.2
003C46AE 2019-02-18 11:02:01 21.2 19 24.2
003C46AE 2019-02-18 10:30:19 21.2 19 24.2
003C46AE 2019-02-18 09:58:39 21.1 19 24.7
003C46AE 2019-02-18 09:26:58 21.1 19 24.7
003C46AE 2019-02-18 08:55:18 21 19 24.8
003C46AE 2019-02-18 08:23:38 20.9 19 24.8
003C46AE 2019-02-18 07:51:59 20.7 19 24.9
003C46AE 2019-02-18 07:20:20 20.7 19 24.9
003C46AE 2019-02-18 06:48:40 20.6 19 24.8
003C46AE 2019-02-18 06:16:19 20.6 18 24.3
003C46AE 2019-02-18 05:44:39 20.6 19 23.8
003C46AE 2019-02-18 05:13:00 20.6 19 23.1
003C46AE 2019-02-18 04:41:21 20.6 19 23.2
003C46AE 2019-02-18 04:09:40 20.6 19 23.1
003C46AE 2019-02-18 03:38:01 20.6 19 23.2
003C46AE 2019-02-18 03:06:22 20.6 19 23.2
003C46AE 2019-02-18 02:34:44 20.6 19 23.1
003C46AE 2019-02-18 02:03:05 20.7 19 23.2
003C46AE 2019-02-18 01:31:26 20.7 19 23.2
003C46AE 2019-02-18 00:59:47 20.7 19 23.3
003C46AE 2019-02-18 00:28:07 20.7 19 23.3
003C46AE 2019-02-17 23:56:27 20.7 19 23.3
003C46AE 2019-02-17 23:24:49 20.7 19 23.3
003C46AE 2019-02-17 22:53:10 20.7 19 23.3
003C46AE 2019-02-17 22:21:32 20.7 19 23.3
003C46AE 2019-02-17 21:49:53 20.7 20 23.4
003C46AE 2019-02-17 21:18:15 20.7 20 23.5
003C46AE 2019-02-17 20:46:37 20.7 20 23.5
003C46AE 2019-02-17 20:14:58 20.7 20 23.4
003C46AE 2019-02-17 19:43:20 20.8 20 23.4
003C46AE 2019-02-17 19:11:41 20.8 20 23.4
003C46AE 2019-02-17 18:40:03 20.7 20 23.3
003C46AE 2019-02-17 18:08:24 20.8 20 23.3
003C46AE 2019-02-17 17:36:44 20.8 20 23.5
003C46AE 2019-02-17 17:05:05 20.8 20 23.6
003C46AE 2019-02-17 16:33:25 20.8 20 23.6
003C46AE 2019-02-17 16:01:48 20.8 20 23.6
003C46AE 2019-02-17 15:30:09 20.8 20 23.7
003C46AE 2019-02-17 14:58:30 20.9 21 23.6
003C46AE 2019-02-17 14:26:50 20.9 21 23.7
003C46AE 2019-02-17 13:55:10 21 21 23.7
003C46AE 2019-02-17 13:23:29 21 21 23.8
003C46AE 2019-02-17 12:51:49 21 21 23.8
003C46AE 2019-02-17 12:20:09 20.9 21 23.9
003C46AE 2019-02-17 11:48:28 20.9 21 23.9
003C46AE 2019-02-17 11:16:50 20.8 21 23.9
003C46AE 2019-02-17 10:45:10 20.8 21 23.9
003C46AE 2019-02-17 10:13:31 20.8 21 23.9
003C46AE 2019-02-17 09:41:51 20.8 21 23.8
003C46AE 2019-02-17 09:10:10 20.7 21 23.8
003C46AE 2019-02-17 08:38:31 20.8 21 23.8
003C46AE 2019-02-17 08:06:52 20.8 22 23.7
003C46AE 2019-02-17 07:35:12 20.8 22 23.2
003C46AE 2019-02-17 07:03:33 20.8 22 23.3
003C46AE 2019-02-17 06:31:54 20.9 22 23.3
003C46AE 2019-02-17 06:00:14 20.9 22 23.9
003C46AE 2019-02-17 05:28:36 20.9 22 23.9
003C46AE 2019-02-17 04:56:57 20.9 22 24
003C46AE 2019-02-17 04:25:17 20.9 23 23.8
003C46AE 2019-02-17 03:52:56 20.9 23 23.7
003C46AE 2019-02-17 03:21:17 20.9 23 23.8
003C46AE 2019-02-17 02:49:37 20.9 24 23.7
003C46AE 2019-02-17 02:17:58 20.8 24 23.7
003C46AE 2019-02-17 01:46:19 20.9 24 23.7
003C46AE 2019-02-17 01:14:40 20.8 24 23.7
003C46AE 2019-02-17 00:43:00 20.8 24 23.6
003C46AE 2019-02-17 00:11:18 20.8 25 23.6
003C46AE 2019-02-16 23:39:38 20.8 25 23.6
003C46AE 2019-02-16 23:07:55 20.9 25 23.6
003C46AE 2019-02-16 22:36:13 20.9 25 23.5
003C46AE 2019-02-16 22:04:30 21 25 23.6
003C46AE 2019-02-16 21:32:48 20.9 25 23.6
003C46AE 2019-02-16 21:01:07 20.9 25 23.5
003C46AE 2019-02-16 20:29:25 20.9 25 23.5
003C46AE 2019-02-16 19:57:45 20.9 25 23.6
003C46AE 2019-02-16 19:26:04 20.9 25 23.6
003C46AE 2019-02-16 18:54:26 20.9 26 23.6
003C46AE 2019-02-16 18:22:46 20.9 25 23.5
003C46AE 2019-02-16 17:51:07 21 25 23.5
003C46AE 2019-02-16 17:19:26 21.1 25 23.5
003C46AE 2019-02-16 16:47:45 21.1 25 22.8
003C46AE 2019-02-16 16:16:07 21.1 26 22.8
003C46AE 2019-02-16 15:44:28 21.1 25 22.9
003C46AE 2019-02-16 15:12:50 21.1 25 23
003C46AE 2019-02-16 14:41:10 21.1 25 23.1
003C46AE 2019-02-16 14:09:32 21.1 25 23
003C46AE 2019-02-16 13:37:55 21.1 25 23.1
003C46AE 2019-02-16 13:06:17 21.1 25 23.2
003C46AE 2019-02-16 12:34:38 21 25 23.3
003C46AE 2019-02-16 12:03:00 21 25 23.3
003C46AE 2019-02-16 11:31:20 20.9 25 23.3
003C46AE 2019-02-16 10:59:41 20.9 26 23.3
003C46AE 2019-02-16 10:28:01 20.8 26 23.3
003C46AE 2019-02-16 09:56:21 20.8 26 23.3
003C46AE 2019-02-16 09:24:42 20.8 26 23.3
003C46AE 2019-02-16 08:53:03 20.8 26 23.3
003C46AE 2019-02-16 08:21:24 20.8 26 23.2
003C46AE 2019-02-16 07:49:45 20.8 26 23.2
003C46AE 2019-02-16 07:18:07 20.8 26 23.2
003C46AE 2019-02-16 06:46:27 20.8 26 23.3
003C46AE 2019-02-16 06:14:48 20.8 26 23.3
003C46AE 2019-02-16 05:43:09 20.8 26 23.2
003C46AE 2019-02-16 05:11:28 20.8 26 23.2
003C46AE 2019-02-16 04:39:48 20.9 26 23.2
003C46AE 2019-02-16 04:08:09 20.8 26 23.2
003C46AE 2019-02-16 03:36:29 20.8 26 23.1
003C46AE 2019-02-16 03:04:50 20.9 26 23.1
003C46AE 2019-02-16 02:33:12 20.9 26 23.7
003C46AE 2019-02-16 02:01:33 20.9 26 23.7
003C46AE 2019-02-16 01:29:11 20.9 26 23.5
003C46AE 2019-02-16 00:57:29 20.9 26 23.5
003C46AE 2019-02-16 00:25:46 20.9 26 23.4
003C46AE 2019-02-15 23:54:05 20.9 26 23.2
003C46AE 2019-02-15 23:22:24 21 26 23.2
003C46AE 2019-02-15 22:50:43 21 26 23.1
003C46AE 2019-02-15 22:19:02 21.1 26 23.1
003C46AE 2019-02-15 21:47:20 21.2 26 23
003C46AE 2019-02-15 21:15:39 21.2 26 22.9
003C46AE 2019-02-15 20:43:58 21.3 26 22.9
003C46AE 2019-02-15 20:12:20 21.4 25 22.9
003C46AE 2019-02-15 19:40:41 21.5 25 22.9
003C46AE 2019-02-15 19:09:01 21.6 25 22.9
003C46AE 2019-02-15 18:37:19 21.7 25 22.9
003C46AE 2019-02-15 18:05:41 21.7 25 22.9
003C46AE 2019-02-15 17:34:01 21.7 25 22.8
003C46AE 2019-02-15 17:02:20 21.7 25 22.8
003C46AE 2019-02-15 16:30:39 21.6 25 22.9
003C46AE 2019-02-15 15:58:59 21.6 24 23
003C46AE 2019-02-15 15:27:19 21.7 24 23.6
003C46AE 2019-02-15 14:55:39 21.7 24 24.2
003C46AE 2019-02-15 14:23:58 21.7 24 24.2
003C46AE 2019-02-15 13:52:17 21.7 24 24.2
003C46AE 2019-02-15 13:20:37 21.6 24 23.6
003C46AE 2019-02-15 12:48:56 21.6 24 23.6
003C46AE 2019-02-15 12:17:14 21.5 24 23.7
003C46AE 2019-02-15 11:45:32 21.5 24 23.8
003C46AE 2019-02-15 11:13:49 21.5 25 23.9
003C46AE 2019-02-15 10:42:08 21.4 25 24
003C46AE 2019-02-15 10:10:28 21.4 25 24
003C46AE 2019-02-15 09:38:48 21.3 25 24
003C46AE 2019-02-15 09:07:08 21.3 25 24.1
003C46AE 2019-02-15 08:35:28 21.2 25 24.2
003C46AE 2019-02-15 08:03:49 21.1 26 24.2
003C46AE 2019-02-15 07:32:09 21.1 26 24.2
003C46AE 2019-02-15 07:00:30 21.1 26 24.2
003C46AE 2019-02-15 06:28:47 21.1 26 24.2
003C46AE 2019-02-15 05:57:07 21.1 26 24.1
003C46AE 2019-02-15 05:25:28 21.1 26 24.1
003C46AE 2019-02-15 04:53:47 21.1 26 24
003C46AE 2019-02-15 04:22:07 21.1 26 23.9
003C46AE 2019-02-15 03:50:27 21.1 26 23.8
003C46AE 2019-02-15 03:18:48 21.1 26 23.7
003C46AE 2019-02-15 02:47:09 21.1 26 23.4
003C46AE 2019-02-15 02:15:28 21.1 26 22.6
003C46AE 2019-02-15 01:43:47 21.1 26 21.6
003C46AE 2019-02-15 01:12:07 21.1 26 21.5
003C46AE 2019-02-15 00:40:29 21.1 26 21.5
003C46AE 2019-02-15 00:08:51 21.1 26 21.3
003C46AE 2019-02-14 23:37:13 21.2 26 21.1
003C46AE 2019-02-14 23:04:53 21.2 26 21
003C46AE 2019-02-14 22:33:14 21.2 26 20.6
003C46AE 2019-02-14 22:01:36 21.2 26 20.3
003C46AE 2019-02-14 21:29:57 21.3 25 19.9
003C46AE 2019-02-14 20:58:19 21.3 25 19.8
003C46AE 2019-02-14 20:26:41 21.5 25 19.4
003C46AE 2019-02-14 19:55:03 21.6 24 19.1
003C46AE 2019-02-14 19:23:25 21.7 24 19
003C46AE 2019-02-14 18:51:48 21.8 24 18.8
003C46AE 2019-02-14 18:20:10 21.8 24 18.8
003C46AE 2019-02-14 17:48:31 21.8 24 18.6
003C46AE 2019-02-14 17:16:53 21.9 24 18.5
003C46AE 2019-02-14 16:45:15 21.9 24 18.4
003C46AE 2019-02-14 16:13:37 22 24 18.9
003C46AE 2019-02-14 15:41:58 21.9 24 19.1
003C46AE 2019-02-14 15:10:22 21.8 24 19.1
003C46AE 2019-02-14 14:38:42 21.7 24 19.3
003C46AE 2019-02-14 14:07:09 21.6 24 19.4
003C46AE 2019-02-14 13:35:27 21.5 24 19.4
003C46AE 2019-02-14 13:03:49 21.5 24 19.5
003C46AE 2019-02-14 12:32:10 21.3 23 19.5
003C46AE 2019-02-14 12:00:31 21.2 24 19.7
003C46AE 2019-02-14 11:28:52 21.2 24 19.7
003C46AE 2019-02-14 10:57:17 21 25 19.8
003C46AE 2019-02-14 10:25:34 21 25 20
003C46AE 2019-02-14 09:53:56 20.9 24 19.8
003C46AE 2019-02-14 09:22:17 20.9 24 20.1
003C46AE 2019-02-14 08:50:36 20.7 24 20.2
003C46AE 2019-02-14 08:18:57 20.7 24 20.4
003C46AE 2019-02-14 07:47:18 20.7 25 20.5
003C46AE 2019-02-14 07:15:39 20.8 26 20.7
003C46AE 2019-02-14 06:44:01 20.8 26 20.6
003C46AE 2019-02-14 06:12:22 20.8 26 20.5
003C46AE 2019-02-14 05:40:42 20.8 26 20.3
003C46AE 2019-02-14 05:09:04 20.8 26 20.2
003C46AE 2019-02-14 04:37:25 20.8 26 19.9
003C46AE 2019-02-14 04:05:46 20.8 26 19.8
003C46AE 2019-02-14 03:34:09 20.8 26 19.6
003C46AE 2019-02-14 03:02:30 20.8 25 19.2
003C46AE 2019-02-14 02:30:51 20.8 25 20.7
003C46AE 2019-02-14 01:59:11 20.8 25 20.7
003C46AE 2019-02-14 01:27:32 20.8 25 20.5
003C46AE 2019-02-14 00:55:54 20.8 25 20.4
003C46AE 2019-02-14 00:24:14 20.8 25 20.5
003C46AE 2019-02-13 23:52:33 20.9 25 20.3
003C46AE 2019-02-13 23:20:53 20.9 25 20.3
003C46AE 2019-02-13 22:49:13 20.9 25 20.3
003C46AE 2019-02-13 22:17:34 21 25 20.1
003C46AE 2019-02-13 21:45:54 21 25 20.2
003C46AE 2019-02-13 21:14:15 21.1 25 20
003C46AE 2019-02-13 20:41:54 21.1 25 20.2
003C46AE 2019-02-13 20:10:16 21.2 25 19.9
003C46AE 2019-02-13 19:38:37 21.3 25 19.9
003C46AE 2019-02-13 19:06:56 21.3 26 19.9
003C46AE 2019-02-13 18:35:17 21.4 26 20
003C46AE 2019-02-13 18:03:34 21.4 27 20
003C46AE 2019-02-13 17:31:54 21.4 27 20.1
003C46AE 2019-02-13 17:00:15 21.3 27 20.2
003C46AE 2019-02-13 16:28:33 21.3 26 20.3
003C46AE 2019-02-13 15:56:53 21.2 26 20.5
003C46AE 2019-02-13 14:53:35 21.1 25 20.6
003C46AE 2019-02-13 14:21:55 21.1 25 20.7
003C46AE 2019-02-13 13:50:17 21.1 25 20.8
003C46AE 2019-02-13 13:18:36 21.1 25 20.8
003C46AE 2019-02-13 12:46:55 21.1 25 19.3
003C46AE 2019-02-13 12:15:15 21.1 25 19.3
003C46AE 2019-02-13 11:43:37 21 25 19.5
003C46AE 2019-02-13 11:11:54 20.9 25 19.6
003C46AE 2019-02-13 10:40:13 20.9 24 19.7
003C46AE 2019-02-13 10:08:34 20.8 23 19.6
003C46AE 2019-02-13 09:36:55 20.8 23 19.8
003C46AE 2019-02-13 09:05:14 20.7 22 19.9
003C46AE 2019-02-13 08:33:35 20.7 21 19.9
003C46AE 2019-02-13 08:01:55 20.7 21 20
003C46AE 2019-02-13 07:30:15 20.7 19 20.1
003C46AE 2019-02-13 06:58:36 20.7 19 20.1
003C46AE 2019-02-13 06:26:55 20.7 19 20
003C46AE 2019-02-13 05:55:14 20.8 19 19.9
003C46AE 2019-02-13 05:23:34 20.8 19 19.8
003C46AE 2019-02-13 04:51:53 20.7 19 19.6
003C46AE 2019-02-13 04:20:14 20.8 19 19.3
003C46AE 2019-02-13 03:48:34 20.8 19 19
003C46AE 2019-02-13 03:16:54 20.8 19 18.9
003C46AE 2019-02-13 02:45:15 20.8 19 19
003C46AE 2019-02-13 02:13:36 20.8 18 18.8
003C46AE 2019-02-13 01:41:56 20.8 18 18.8
003C46AE 2019-02-13 01:10:16 20.9 18 18.8
003C46AE 2019-02-13 00:38:35 20.9 18 18.8
003C46AE 2019-02-13 00:06:55 20.9 19 18.9
003C46AE 2019-02-12 23:35:15 20.9 19 18.9
003C46AE 2019-02-12 23:03:35 20.9 19 18.7
003C46AE 2019-02-12 22:31:54 21 19 18.5
003C46AE 2019-02-12 22:00:14 21.1 19 18.4
003C46AE 2019-02-12 21:28:35 21.2 20 18.2
003C46AE 2019-02-12 20:56:54 21.3 21 18.3
003C46AE 2019-02-12 20:25:15 21.3 21 18.1
003C46AE 2019-02-12 19:53:34 21.4 21 18
003C46AE 2019-02-12 19:21:52 21.5 20 18
003C46AE 2019-02-12 18:50:10 21.5 20 17.5
003C46AE 2019-02-12 18:17:46 21.5 19 17.3
003C46AE 2019-02-12 17:46:06 21.6 19 16.8
003C46AE 2019-02-12 17:14:22 21.7 19 16.8
003C46AE 2019-02-12 16:42:42 21.9 19 16.8
003C46AE 2019-02-12 16:11:02 22 19 16.6
003C46AE 2019-02-12 15:39:20 22 19 16.9
003C46AE 2019-02-12 15:07:39 22 19 16.9
003C46AE 2019-02-12 14:35:57 21.7 19 16.9
003C46AE 2019-02-12 14:04:15 21.4 19 16.9
003C46AE 2019-02-12 13:32:33 21.3 19 16.4
003C46AE 2019-02-12 13:00:56 21.3 19 16.5
003C46AE 2019-02-12 11:57:27 21.3 20 16.4
003C46AE 2019-02-12 11:25:44 21.2 20 15.9
003C46AE 2019-02-12 10:54:01 21.2 21 16
003C46AE 2019-02-12 10:22:20 21.1 22 15.7
003C46AE 2019-02-12 09:50:40 21 22 15.2
003C46AE 2019-02-12 09:19:01 21 23 15.2
003C46AE 2019-02-12 08:47:19 20.9 23 15.5
003C46AE 2019-02-12 08:15:38 20.8 23 15.5
003C46AE 2019-02-12 07:43:57 20.8 25 15.6
003C46AE 2019-02-12 07:12:14 20.8 26 15.3
003C46AE 2019-02-12 06:40:31 20.8 26 15.4
003C46AE 2019-02-12 06:08:51 20.8 26 15.3
003C46AE 2019-02-12 05:37:10 20.8 26 15.5
003C46AE 2019-02-12 05:05:28 20.8 27 15.6
003C46AE 2019-02-12 04:33:47 20.8 27 15.6
003C46AE 2019-02-12 04:02:05 20.8 27 15.7
003C46AE 2019-02-12 03:30:24 20.9 27 15.8
003C46AE 2019-02-12 02:58:43 20.8 27 16
003C46AE 2019-02-12 02:27:02 20.8 27 16.2
003C46AE 2019-02-12 01:55:22 20.9 27 15.6
003C46AE 2019-02-12 01:23:43 20.9 27 15.7
003C46AE 2019-02-12 00:52:02 20.9 27 15.7
003C46AE 2019-02-12 00:20:22 20.9 27 15.9
003C46AE 2019-02-11 23:48:40 21 27 16.1
003C46AE 2019-02-11 23:16:58 21 27 16.1
003C46AE 2019-02-11 22:45:17 21.1 27 16.4
003C46AE 2019-02-11 22:13:36 21.1 27 16.6
003C46AE 2019-02-11 21:41:56 21.2 27 16.3
003C46AE 2019-02-11 21:10:14 21.2 28 16.5
003C46AE 2019-02-11 20:38:34 21.3 28 16.7
003C46AE 2019-02-11 20:06:54 21.4 27 17
003C46AE 2019-02-11 19:35:14 21.5 27 16.6
003C46AE 2019-02-11 19:03:34 21.6 27 17.1
003C46AE 2019-02-11 18:31:52 21.8 27 17.3
003C46AE 2019-02-11 18:00:10 21.9 28 18.2
003C46AE 2019-02-11 17:28:26 22.1 28 19.2
003C46AE 2019-02-11 16:56:43 22.2 28 21.3
003C46AE 2019-02-11 16:24:57 22.3 33 0